CAPE
1198 1158 1163 816 1175 944 619 928 768 1065 2277 2250 2398 2519 2611 2408 2922 2005 2249 3372 2359 1599 1914 2015 2548 2970 3412 3193 2913 2998 3168 2931 2667
981 1030 1163 837 1476 1116 1053 1051 1361 1514 2401 2664 2619 2328 2529 2619 2346 2200 2180 2873 2815 2138 3403 2267 2804 3157 3143 3460 2775 3279 2527 2435 3198
440 575 851 918 1161 1376 1481 1000 1060 2009 2417 2554 2432 2288 2097 2011 2250 2301 2413 2510 2976 2510 2830 2478 1335 1715 2140 3061 3470 2262 2270 2659 2246
109 273 381 694 1133 1132 1798 1583 1244 1372 1857 2388 2263 2314 1970 2149 2048 2089 2237 2139 2408 2652 3229 2121 964 1827 1142 2026 2314 2820 2407 2406 2837
345 240 443 591 796 1230 1960 1809 1256 1670 1913 2105 2051 2299 2251 2038 1972 2104 2014 1754 2212 2580 2821 1496 432 7 1839 2353 2178 2501 960 2285 1864
732 460 475 604 841 1194 1509 1833 2054 1446 1692 2221 2266 2372 2341 1917 2195 2136 1792 2053 2210 2153 2964 2687 1601 1403 2800 3118 2918 2786 2487 2804 2278
732 556 1015 1228 1463 1627 1659 2280 2459 2540 2016 1994 2300 1920 2145 1740 2000 1857 1948 2070 1833 2138 2667 2490 2206 2743 2337 2450 2490 2174 2145 2449 2054
702 693 940 1252 1111 1215 1765 2013 2538 2376 2889 2616 2880 2635 2136 1590 1623 1289 1603 2071 2180 1858 2190 2069 2347 2221 2536 2390 2109 1463 2516 2285 1962
721 843 622 1053 865 1226 971 1293 1589 2108 2036 2190 1781 1564 1477 768 592 452 338 318 1954 2193 2440 2014 2173 2258 2253 1954 1524 840 659 1805 2095
693 796 879 936 850 1018 1004 1001 1373 1235 1367 1680 1790 1549 1600 783 712 22 100 218 1701 2209 1842 2199 2540 2490 2235 2153 1977 1246 699 585 1499
663 798 1491 1140 828 720 469 508 377 409 998 1252 1079 519 584 611 586 841 1503 1895 1908 2797 2604 1575 1615 1707 2132 2164 1932 901 828 742 1192
939 814 1466 1410 1208 793 918 677 699 428 94 146 151 159 204 246 217 54 90 694 1189 1936 2309 2340 2439 2108 1610 1535 1584 800 637 676 1254
993 1422 1349 1341 934 882 767 573 272 451 401 12 0 47 83 33 145 296 237 282 711 1319 1341 1034 713 536 692 729 643 674 579 397 554
1805 1843 1761 1557 1042 1038 1059 936 843 1091 848 590 826 448 471 510 351 195 236 214 291 594 641 363 384 259 368 245 212 210 331 308 226
1650 1490 1183 1211 1229 1142 1008 1081 1021 1493 1217 1068 984 761 927 1073 942 429 335 281 275 353 348 219 61 16 0 0 26 158 149 114 108
1430 1418 1537 1359 1030 824 675 549 584 1167 1092 939 1139 964 395 275 278 217 165 200 178 118 114 115 95 73 49 18 0 8 1 0 8
724 362 226 97 224 183 217 473 172 1019 660 705 771 481 549 147 187 203 172 148 107 105 135 152 177 89 107 68 30 9 15 15 2
757 625 408 276 335 52 257 125 169 211 481 541 404 295 240 144 120 158 216 189 86 87 78 101 85 68 53 20 37 55 36 25 17
1093 984 812 653 414 45 265 80 286 248 419 442 65 446 513 413 196 71 141 97 116 53 46 51 53 24 10 8 14 36 45 26 2
802 1086 609 385 73 256 422 197 281 407 470 277 209 467 422 362 204 238 108 127 26 15 0 53 73 41 6 1 20 12 5 0 10
CIN
-10 -15 -7 -12 -19 -19 -31 -91 -127 -23 -17 -31 -9 0 -2 -8 -3 -8 -12 -2 -17 -49 -25 -35 -38 -21 -6 -13 -27 -15 -7 -8 -13
-16 -6 -4 -26 -21 -33 -21 -24 -17 -11 -27 -22 -9 0 -3 -2 -9 -11 -3 -7 -30 -27 -16 -58 -39 -23 -9 -10 -20 -15 -27 -19 -7
-1 -22 -35 -10 -17 -8 -10 -23 -13 -10 -28 -30 -26 -1 -4 -1 0 -7 -19 -21 -13 -20 -24 -24 -20 -44 -36 -17 -15 -22 -27 -7 -14
-28 -23 -55 -31 -16 -3 -7 -10 -14 -91 -21 -22 -18 -2 -5 -5 -6 -2 -11 -20 -12 -24 -7 -88 -102 -42 -125 -48 -16 -9 -18 -9 -13
-28 -32 -23 -32 -33 -10 -13 -21 -49 -17 -13 -16 -14 -10 -21 -15 -17 -5 -3 -12 -11 -16 -20 -120 -31 -109 -24 -15 -13 -13 -63 -6 -12
-52 -51 -43 -31 -3 -3 -7 -5 -31 -72 -21 -12 -13 -7 -8 -15 -8 -9 -6 -9 -6 -6 -11 -20 -39 -64 -11 -5 -8 -7 -10 -12 -14
-46 -50 -33 -8 -5 -26 -37 -18 -39 -28 -30 -27 -29 -21 -11 -26 -23 -16 -9 -17 -25 -13 -17 -17 -20 -12 -8 -8 -13 -13 -16 -11 -20
-33 -37 -5 -13 -19 -29 -19 -5 -6 -10 -5 -34 -7 -23 -49 -25 -48 -16 -23 -35 -42 -22 -16 -16 -14 -16 -7 -7 -4 -5 -17 -20 -30
-29 -10 -23 -15 -36 -32 -63 -19 0 0 0 -3 -36 -38 -34 -15 -89 -37 -14 -17 -32 -14 -7 -14 -8 -3 -4 -10 0 -2 -3 -51 -10
-20 -1 -4 -10 -41 -35 -47 -31 0 0 0 0 0 -6 -10 -26 -6 -5 -70 -193 -14 -16 -23 -15 -7 -3 -5 -4 -6 -5 -5 -4 -18
-14 -1 -10 -9 -41 -53 -115 -99 -107 -38 -1 -1 -6 -23 -36 -45 -35 -7 -5 -5 -11 -2 -7 -37 -33 -22 -6 -4 -9 -5 -13 -10 -39
-2 -3 -14 -23 -22 -40 -27 -58 -50 -60 -133 -77 -25 -30 -21 -17 -14 -4 -88 -25 -8 -1 0 0 0 -2 -15 -10 -8 -19 -18 -21 -50
-2 -22 -25 -33 -38 -35 -32 -64 -104 -53 -44 -6 0 -110 -91 -123 -64 -2 -2 -27 -5 -1 -1 0 -7 -31 -21 -23 -24 -29 -29 -48 -41
-7 -3 -23 -1 -4 -7 -3 -12 -7 -1 0 -5 -1 -24 -13 -10 -12 -38 -31 -24 -1 -1 0 -19 -13 -25 -1 -9 -15 -16 -9 -14 -10
-42 -18 -46 -14 -11 -7 -8 -2 -7 -1 -1 -6 -1 0 0 0 0 -1 -3 -35 -6 -2 0 -12 -70 -100 -50 0 -3 0 0 -2 -3
-12 -1 -1 -5 -9 -19 -25 -28 -16 -3 0 -3 -1 0 -33 -33 -30 -37 -55 -24 -50 -62 -90 -124 -117 -93 -51 -24 -2 -34 -17 0 -19
-26 -42 -45 -80 -45 -64 -64 -26 -44 -2 -6 -4 0 -2 0 -54 -36 -31 -30 -25 -27 -71 -70 -42 -44 -79 -57 -52 -86 -57 -73 -86 -11
-7 -18 -21 -33 -14 -81 -34 -43 -24 -20 -7 -8 -7 -4 -4 -13 -19 -12 -4 -8 -20 -19 -42 -73 -54 -43 -92 -116 -117 -116 -105 -102 -98
-1 0 -1 -2 -7 -91 -22 -31 -12 -14 -1 -2 -42 0 0 -1 -5 -17 -4 -10 -24 -31 -39 -33 -32 -34 -138 -111 -81 -113 -112 -144 -56
-5 -2 -22 -23 -42 -21 -4 -12 -10 -6 0 0 0 0 0 -7 -1 0 -23 -11 -46 -45 -2 -35 -13 -19 -94 -19 -73 -69 -60 -6 -146
Wind_Speed
40 29 25 17 20 22 23 22 20 28 24 20 16 11 9 11 11 12 14 16 17 15 13 16 12 12 14 13 15 15 13 14 11
28 25 30 19 24 22 29 26 21 17 23 24 20 12 11 11 12 9 12 13 15 14 19 21 14 15 16 15 15 14 14 12 11
30 24 20 17 23 22 22 19 12 24 20 15 22 15 12 12 12 10 10 14 14 16 23 27 27 19 19 18 20 20 18 14 12
25 22 19 18 15 17 21 19 13 31 11 17 21 18 15 13 13 11 10 10 16 21 23 26 18 26 36 31 24 22 17 17 16
25 19 17 17 16 14 19 15 16 20 20 18 19 18 20 16 17 14 11 9 10 21 23 25 22 nan 21 7 14 23 23 18 16
26 22 20 20 20 18 16 14 19 20 21 19 16 15 17 21 20 18 14 12 11 13 21 22 17 13 20 17 20 20 21 22 19
32 29 25 25 26 27 22 21 20 22 17 20 21 12 26 23 23 22 17 18 14 12 14 17 15 17 18 15 14 16 22 19 19
27 26 25 27 23 23 22 17 17 21 21 26 28 30 30 25 27 27 27 21 19 13 13 15 17 16 19 18 17 17 19 20 22
28 26 25 27 23 25 19 16 16 17 19 20 27 26 29 31 33 50 37 32 24 22 19 17 19 19 20 20 20 18 17 21 21
28 27 26 27 27 24 24 24 22 23 23 24 23 26 30 24 25 nan 27 20 19 22 18 17 20 20 21 22 21 19 20 21 22
28 28 31 28 29 25 25 24 27 25 27 31 33 35 38 40 38 32 25 24 23 27 23 23 24 23 22 22 26 37 29 23 25
28 24 29 27 30 27 23 24 26 28 nan 30 31 33 34 36 41 nan nan 44 35 27 28 31 31 29 28 27 33 40 39 33 30
34 34 30 29 29 28 25 25 25 23 23 nan nan nan nan nan 44 42 41 31 20 34 36 37 37 37 40 43 42 42 40 41 36
31 36 29 26 23 23 20 20 21 22 19 17 17 20 20 31 40 32 40 35 33 38 39 44 41 42 46 44 41 43 45 43 40
31 32 31 28 25 21 19 18 18 17 21 21 18 15 18 21 27 30 24 29 35 38 43 44 nan nan nan nan nan 45 45 46 42
29 30 30 29 29 27 25 25 18 24 30 28 30 28 25 22 22 20 20 20 27 46 55 51 nan nan nan nan nan nan nan nan nan
31 31 32 nan 31 28 28 29 26 26 28 29 31 31 29 25 22 22 19 17 23 14 20 31 26 nan 24 nan nan nan nan nan nan
32 31 32 32 31 nan 30 30 29 29 31 32 31 29 28 30 29 25 22 23 nan nan nan 13 nan nan nan nan nan nan nan nan nan
31 31 32 31 31 nan 33 nan 32 33 30 34 nan 27 27 28 29 nan 26 nan 25 nan nan nan nan nan nan nan nan nan nan nan nan
29 29 32 31 nan 34 32 30 33 33 31 32 32 29 29 29 28 30 27 23 nan nan nan nan nan nan nan nan nan nan nan nan nan
Wind_Direction
293 312 308 323 315 314 312 324 336 354 326 307 299 294 293 268 257 225 212 217 225 212 218 222 245 237 238 231 247 227 237 246 245
284 287 304 317 309 298 310 319 323 318 301 297 299 302 277 270 262 252 239 226 233 222 216 226 249 239 230 241 235 247 249 245 233
287 272 270 271 310 315 302 301 291 259 281 291 295 297 288 278 272 267 236 239 249 235 240 232 215 223 218 227 246 239 229 233 248
293 291 278 265 257 281 300 294 271 283 315 299 282 290 289 289 281 278 260 239 255 248 241 246 236 237 222 199 216 242 241 228 216
282 273 276 271 272 257 274 291 268 267 280 279 289 259 271 267 278 270 265 253 251 261 253 249 235 nan 260 265 203 232 241 233 225
281 287 293 283 269 264 278 274 280 268 254 266 274 278 278 273 269 272 267 267 247 250 250 255 264 249 247 254 225 225 240 246 240
287 285 281 275 266 261 255 253 253 254 263 258 252 246 278 292 265 264 256 255 263 265 270 268 262 246 257 251 247 239 246 247 247
289 288 289 280 275 275 266 264 266 264 247 241 243 243 240 257 258 229 247 233 235 251 268 272 268 257 256 256 254 241 245 245 250
294 291 287 286 283 269 266 258 272 279 264 260 247 240 246 261 257 230 221 206 209 227 226 239 254 255 256 254 246 246 248 254 244
299 297 289 287 277 275 273 270 266 266 274 268 269 250 252 240 264 nan 274 203 218 232 229 238 247 245 245 246 251 237 244 261 253
299 296 286 288 284 280 283 279 275 272 260 261 249 249 251 239 227 248 245 236 236 231 231 229 238 245 247 249 252 241 238 242 262
297 292 288 289 291 278 278 281 287 284 nan 261 255 255 252 257 244 nan nan 231 223 228 233 236 235 233 238 246 249 246 242 242 254
292 287 285 287 293 294 291 287 288 290 288 nan nan nan nan nan 268 263 232 235 241 231 239 243 243 240 241 248 254 247 245 247 252
281 282 281 286 290 286 282 288 292 297 305 307 300 279 286 258 273 264 278 274 245 231 243 242 243 249 249 249 249 252 247 250 259
284 287 284 286 285 286 290 287 285 283 288 282 282 283 272 260 273 279 275 273 266 243 249 248 nan nan nan nan nan 249 254 254 251
291 287 286 292 283 280 283 275 276 277 278 273 278 280 282 281 285 287 281 271 264 248 246 245 nan nan nan nan nan nan nan nan nan
283 280 276 nan 276 280 279 282 280 278 280 277 281 285 287 287 287 285 278 294 267 270 252 251 238 nan 239 nan nan nan nan nan nan
279 278 274 272 271 nan 277 276 282 281 282 279 280 281 282 285 285 281 272 263 nan nan nan 290 nan nan nan nan nan nan nan nan nan
278 275 273 273 274 nan 279 nan 281 281 281 281 nan 280 283 283 284 nan 281 nan 269 nan nan nan nan nan nan nan nan nan nan nan nan
277 277 275 276 nan 282 287 289 288 284 279 278 280 279 273 274 272 275 278 279 nan nan nan nan nan nan nan nan nan nan nan nan nan